Skip Page Navigation
NASA JPL Caltech
NASA Logo - Jet Propulsion Laboratory + View the NASA Portal
+ Near-Earth Object (NEO) Program
Search JPL
JPL Home Earth Solar System Stars & Galaxies Technology
JPL Solar System Dynamics
BODIES ORBITS EPHEMERIDES TOOLS PHYSICAL DATA DISCOVERY FAQ SITE MAP
JPL Small-Body Database Browser
Search: [ help ]  
27095 Girardiwanda (1998 UE23)
Classification: Main-belt Asteroid          SPK-ID: 2027095
Ephemeris | Orbit Diagram | Orbital Elements | Physical Parameters | Discovery Circumstances ]

[ show orbit diagram ]
Orbital Elements at Epoch 2457600.5 (2016-Jul-31.0) TDB
Reference: JPL 17 (heliocentric ecliptic J2000)
 Element Value Uncertainty (1-sigma)   Units 
e .1686962133201659 6.9513e-08  
a 2.171527887432858 8.692e-09 au
q 1.805199355703795 1.4794e-07 au
i 5.06031686208966 5.9836e-06 deg
node 349.3573991173292 5.4643e-05 deg
peri 13.25022050939996 5.6211e-05 deg
M 227.5023994141269 1.7764e-05 deg
tp 2458030.681823706994
(2017-Oct-04.18182371)
5.9354e-05 JED
period 1168.817064231651
3.20
7.0176e-06
1.921e-08
d
yr
n .308003716763542 1.8493e-09 deg/d
Q 2.53785641916192 1.0158e-08 au
  Orbit Determination Parameters
   # obs. used (total)      1040  
   data-arc span      23864 days (65.34 yr)  
   first obs. used      1950-12-09  
   last obs. used      2016-04-10  
   planetary ephem.      DE431  
   SB-pert. ephem.      SB431-BIG16  
   condition code      0  
   fit RMS      .54064  
   data source      ORB  
   producer      Otto Matic  
   solution date      2016-Apr-25 13:48:36  

Additional Information
 Earth MOID = .801663 au 
 Jupiter MOID = 2.90555 au 
 T_jup = 3.665 
[ show covariance matrix ]

Ephemeris | Orbit Diagram | Orbital Elements | Physical Parameters | Discovery Circumstances ]

Physical Parameter Table
Parameter Symbol Value Units Sigma Reference Notes
absolute magnitude H 14.9 mag n/a MPO319420  

27095 Girardiwanda           Discovered 1998 Oct. 25 by U. Munari and F. Castellani at Cima Ekar Observatory.
Girardi Wanda (b. 1931) was born in Verona. A poet and journalist, she published eight collections of poems and is represented in four anthologies. As a journalist she published more than 400 articles on culture and history. She won 61 poetry contests and was honored in another 160.
NOTE: some special characters may not display properly (any characters within {} are an attempt to place the proper accent above a character)
Reference: 20030910/MPCPages.arcLast Updated: 2003-10-02

Alternate Designations
 1998 UE23 = 1985 SP4 = 2000 EK69 
Ephemeris | Orbit Diagram | Orbital Elements | Physical Parameters | Discovery Circumstances ]
ABOUT SSD CREDITS/AWARDS PRIVACY/COPYRIGHT GLOSSARY LINKS
FirstGov 2016-May-02 21:20 UT
(server date/time)  
NASA Home Page
Site Manager:   Ryan S. Park
Webmaster  Alan B. Chamberlin